Vinton, IA

3:16 PM CDT on September 26, 2017 (GMT -0500)
Vinton-Veterans Memorial

Weather History for KVTI - March, 2013

Change the Weather History Date:

Tuesday, March 5, 2013

  Actual Average Record
Temperature  
Mean Temperature 28 °F -  
Max Temperature 32 °F 39 °F 68 °F (2009)
Min Temperature 22 °F 23 °F -14 °F (1960)
Degree Days  
Heating Degree Days 38    
Moisture  
Dew Point 22 °F    
Average Humidity 81    
Maximum Humidity 91    
Minimum Humidity 67    
Precipitation  
Precipitation 0.05 in - - ()
Sea Level Pressure  
Sea Level Pressure 30.01 in    
Wind  
Wind Speed 9 mph (NNW)    
Max Wind Speed 18 mph    
Max Gust Speed 28 mph    
Visibility 6 miles    
Events Snow    
Averages and records for this station are not official NWS values.
T = Trace of Precipitation, MM = Missing Value Source: NWS Daily Summary

Daily Weather History Graph

Daily Weather History Graph

Search for Another Location

Airport or City:

Trip Planner

Search our weather history database for the weather conditions in past years. The results will help you decide how hot, cold, wet, or windy it might be!

Date:

Astronomy

Mar. 05, 2013 Rise Set
Actual Time 6:36 AM CST 6:03 PM CST
Civil Twilight 6:08 AM CST 6:31 PM CST
Nautical Twilight 5:36 AM CST 7:03 PM CST
Astronomical Twilight 5:03 AM CST 7:36 PM CST
Moon 1:53 AM CST (3/5) 11:37 AM CST (3/5)
Length of Visible Light 12h 22m
Length of Day
11h 26m
Last Quarter, 40% of the Moon is Illuminated
Mar 5
Last Quarter
Mar 11
New
Mar 19
First Quarter
Mar 27
Full
Apr 2
Last Quarter

Hourly Weather History & Observations

Time (CST) Temp. Windchill Dew Point Humidity Pressure Visibility Wind Dir Wind Speed Gust Speed Precip Events Conditions
12:15 AM 27.5 °F 20.2 °F 21.9 °F 80% 29.96 in 10.0 mi ENE 6.9 mph - N/A   Overcast
12:35 AM 27.5 °F 19.3 °F 22.1 °F 80% 29.95 in 7.0 mi ENE 8.1 mph - N/A   Mostly Cloudy
12:55 AM 27.5 °F 20.2 °F 22.8 °F 83% 29.96 in 3.0 mi ENE 6.9 mph - N/A Snow Light Snow
1:15 AM 27.5 °F 20.2 °F 23.4 °F 84% 29.96 in 2.5 mi ENE 6.9 mph - N/A Snow Light Snow
1:35 AM 25.5 °F 17.8 °F 22.3 °F 88% 29.96 in 1.2 mi East 6.9 mph - N/A Snow Light Snow
1:55 AM 25.2 °F 17.3 °F 22.5 °F 89% 29.95 in 1.5 mi East 6.9 mph - N/A Snow Light Snow
2:15 AM 25.2 °F 17.3 °F 22.6 °F 90% 29.94 in 2.0 mi East 6.9 mph - N/A Snow Light Snow
2:35 AM 25.2 °F 18.3 °F 22.6 °F 90% 29.93 in 2.5 mi ENE 5.8 mph - N/A Snow Light Snow
2:55 AM 25.2 °F 19.5 °F 22.6 °F 90% 29.93 in 3.0 mi East 4.6 mph - N/A Snow Light Snow
3:15 AM 25.2 °F 19.5 °F 22.5 °F 89% 29.93 in 2.0 mi ENE 4.6 mph - N/A Snow Light Snow
3:35 AM 25.2 °F 20.9 °F 22.6 °F 90% 29.93 in 1.2 mi NE 3.5 mph - N/A Snow Light Snow
3:55 AM 25.2 °F - 22.6 °F 90% 29.93 in 1.2 mi Calm Calm - N/A Snow Light Snow
4:15 AM 25.2 °F - 22.8 °F 91% 29.93 in 1.8 mi Calm Calm - 0.01 in Snow Light Snow
4:55 AM 25.2 °F 20.9 °F 23.0 °F 91% 29.93 in 1.5 mi NNW 3.5 mph - 0.02 in Snow Light Snow
5:15 AM 25.2 °F 20.9 °F 23.0 °F 91% 29.93 in 1.5 mi North 3.5 mph - 0.01 in Snow Light Snow
5:55 AM 25.2 °F 19.5 °F 23.0 °F 91% 29.94 in 0.8 mi NNW 4.6 mph - 0.02 in Snow Snow
6:15 AM 25.2 °F 19.5 °F 23.0 °F 91% 29.94 in 1.2 mi NNW 4.6 mph - 0.01 in Snow Light Snow
6:35 AM 25.2 °F 20.9 °F 23.0 °F 91% 29.95 in 1.2 mi NNW 3.5 mph - 0.01 in Snow Light Snow
7:15 AM 25.2 °F - 23.0 °F 91% 29.95 in 0.8 mi Calm Calm - N/A Snow Light Snow
7:35 AM 25.2 °F - 23.0 °F 91% 29.95 in 1.2 mi Calm Calm - N/A Snow Light Snow
7:55 AM 25.2 °F 20.9 °F 23.0 °F 91% 29.94 in 1.0 mi NNW 3.5 mph - N/A Snow Light Snow
8:15 AM 25.2 °F 20.9 °F 22.6 °F 90% 29.94 in 1.0 mi NW 3.5 mph - N/A Snow Light Snow
8:35 AM 27.5 °F 21.1 °F 24.8 °F 90% 29.95 in 1.0 mi WNW 5.8 mph - N/A Snow Light Snow
8:55 AM 27.5 °F 21.1 °F 24.6 °F 89% 29.94 in 1.0 mi WNW 5.8 mph - N/A Snow Light Snow
9:15 AM 27.5 °F 19.3 °F 24.1 °F 87% 29.95 in 1.2 mi WNW 8.1 mph - N/A Snow Light Snow
9:35 AM 27.5 °F 19.3 °F 23.7 °F 86% 29.94 in 2.5 mi WNW 8.1 mph - N/A Snow Light Snow
9:55 AM 27.5 °F 18.6 °F 23.0 °F 83% 29.94 in 4.0 mi WNW 9.2 mph - N/A   Mostly Cloudy
10:15 AM 27.5 °F 18.0 °F 23.2 °F 84% 29.94 in 3.0 mi WNW 10.4 mph - N/A   Overcast
10:35 AM 27.5 °F 16.3 °F 22.6 °F 82% 29.94 in 3.0 mi NW 13.8 mph - N/A   Haze
10:55 AM 28.9 °F 18.6 °F 23.0 °F 78% 29.93 in 5.0 mi NW 12.7 mph - N/A Snow Light Snow
11:15 AM 28.9 °F 17.7 °F 23.4 °F 80% 29.94 in 7.0 mi WNW 15.0 mph - N/A Snow Light Snow
11:35 AM 28.9 °F 18.2 °F 23.0 °F 78% 29.93 in 7.0 mi WNW 13.8 mph - N/A Snow Light Snow
11:55 AM 30.2 °F 21.9 °F 23.7 °F 77% 29.94 in 5.0 mi NNW 9.2 mph - N/A Snow Light Snow
12:15 PM 31.1 °F 20.9 °F 23.2 °F 72% 29.93 in 5.0 mi NNW 13.8 mph 17.3 mph N/A Snow Light Snow
12:35 PM 32.4 °F 22.5 °F 24.3 °F 72% 29.94 in 5.0 mi NNW 13.8 mph 19.6 mph N/A   Haze
12:55 PM 32.4 °F 24.0 °F 24.8 °F 74% 29.94 in 5.0 mi North 10.4 mph 17.3 mph N/A   Haze
1:15 PM 30.2 °F 20.2 °F 22.6 °F 73% 29.95 in 5.0 mi NNW 12.7 mph 18.4 mph N/A Snow Light Snow
1:35 PM 32.4 °F 22.1 °F 24.6 °F 73% 29.95 in 5.0 mi NNW 15.0 mph - N/A   Haze
1:55 PM 30.2 °F 18.5 °F 22.3 °F 72% 29.95 in 5.0 mi NNW 17.3 mph 23.0 mph N/A   Haze
2:15 PM 30.2 °F 20.8 °F 21.4 °F 70% 29.96 in 10.0 mi NNW 11.5 mph 19.6 mph N/A   Clear
2:35 PM 30.2 °F 19.8 °F 21.2 °F 69% 29.97 in 10.0 mi NNW 13.8 mph 21.9 mph N/A   Clear
2:55 PM 32.4 °F 22.1 °F 23.0 °F 68% 29.97 in 10.0 mi NNW 15.0 mph 20.7 mph N/A   Scattered Clouds
3:15 PM 32.4 °F 21.7 °F 23.0 °F 68% 29.98 in 10.0 mi NNW 16.1 mph 20.7 mph N/A   Mostly Cloudy
3:35 PM 32.4 °F 21.7 °F 22.8 °F 68% 29.99 in 10.0 mi NNW 16.1 mph 23.0 mph N/A   Mostly Cloudy
3:55 PM 30.2 °F 18.1 °F 20.3 °F 67% 29.99 in 10.0 mi NNW 18.4 mph 25.3 mph N/A   Scattered Clouds
4:15 PM 30.2 °F 18.9 °F 20.7 °F 68% 30.01 in 10.0 mi NNW 16.1 mph 21.9 mph N/A   Scattered Clouds
4:35 PM 28.9 °F 17.3 °F 20.1 °F 70% 30.02 in 10.0 mi NNW 16.1 mph 21.9 mph N/A   Mostly Cloudy
4:55 PM 27.5 °F 14.6 °F 19.6 °F 72% 30.03 in 10.0 mi NNW 18.4 mph 23.0 mph N/A   Overcast
5:15 PM 27.5 °F 15.0 °F 19.6 °F 72% 30.05 in 10.0 mi NNW 17.3 mph 26.5 mph N/A   Overcast
5:35 PM 27.5 °F 14.6 °F 20.1 °F 74% 30.06 in 10.0 mi NNW 18.4 mph 27.6 mph N/A   Overcast
5:55 PM 27.5 °F 15.4 °F 20.1 °F 74% 30.07 in 10.0 mi NNW 16.1 mph 23.0 mph N/A   Overcast
6:15 PM 27.5 °F 15.4 °F 20.3 °F 74% 30.08 in 10.0 mi NNW 16.1 mph 25.3 mph N/A   Overcast
6:35 PM 27.5 °F 15.0 °F 20.5 °F 75% 30.09 in 10.0 mi NNW 17.3 mph 24.2 mph N/A   Overcast
6:55 PM 27.5 °F 15.0 °F 20.8 °F 76% 30.10 in 10.0 mi NNW 17.3 mph 26.5 mph N/A   Overcast
7:15 PM 27.5 °F 15.4 °F 21.2 °F 77% 30.11 in 10.0 mi NNW 16.1 mph 25.3 mph N/A   Overcast
7:35 PM 27.5 °F 15.9 °F 21.7 °F 79% 30.11 in 10.0 mi NNW 15.0 mph 24.2 mph N/A   Overcast
7:55 PM 27.5 °F 15.4 °F 21.9 °F 80% 30.13 in 10.0 mi NNW 16.1 mph 23.0 mph N/A   Overcast
8:15 PM 27.5 °F 15.9 °F 22.5 °F 81% 30.14 in 10.0 mi NNW 15.0 mph 21.9 mph N/A   Overcast
8:35 PM 27.5 °F 16.8 °F 22.8 °F 83% 30.15 in 10.0 mi NNW 12.7 mph 19.6 mph N/A   Mostly Cloudy
8:55 PM 27.5 °F 16.3 °F 22.8 °F 83% 30.15 in 10.0 mi NNW 13.8 mph 19.6 mph N/A   Overcast
9:15 PM 27.5 °F 16.8 °F 22.8 °F 83% 30.16 in 10.0 mi NNW 12.7 mph 17.3 mph N/A   Overcast
9:35 PM 27.5 °F 17.4 °F 22.8 °F 83% 30.18 in 10.0 mi NNW 11.5 mph 19.6 mph N/A   Overcast
9:55 PM 27.5 °F 18.0 °F 22.1 °F 80% 30.18 in 10.0 mi NNW 10.4 mph - N/A   Overcast
10:15 PM 25.3 °F 14.7 °F 20.5 °F 82% 30.19 in 10.0 mi NNW 11.5 mph 16.1 mph N/A   Overcast
10:35 PM 25.2 °F 14.4 °F 20.3 °F 82% 30.20 in 10.0 mi NNW 11.5 mph - N/A   Scattered Clouds
10:55 PM 25.2 °F 13.9 °F 20.1 °F 81% 30.21 in 10.0 mi NNW 12.7 mph - N/A   Clear
11:15 PM 24.4 °F 13.5 °F 19.0 °F 80% 30.21 in 10.0 mi North 11.5 mph - N/A   Mostly Cloudy
11:35 PM 23.9 °F 12.3 °F 18.1 °F 79% 30.21 in 10.0 mi North 12.7 mph - N/A   Overcast
11:55 PM 22.6 °F 12.6 °F 16.5 °F 77% 30.21 in 10.0 mi NNW 9.2 mph - N/A   Scattered Clouds